Radiation Dose at Monitoring Post of Fukushima Daini Nuclear Power Station
Date,Time,MP-1(microSv/h),MP-2(microSv/h),MP-3(microSv/h),MP-4(microSv/h),MP-5(microSv/h),MP-6(microSv/h),MP-7(microSv/h),Wind Direction,Wind Velocity(m/s),Rain
2014/12/02,00:00,0.590,0.386,0.636,0.565,0.572,0.263,0.226,west,12.5,No
2014/12/02,00:10,0.593,0.386,0.637,0.563,0.570,0.264,0.227,west-northwest,11.2,No
2014/12/02,00:20,0.592,0.386,0.635,0.565,0.572,0.264,0.227,west,11.5,No
2014/12/02,00:30,0.594,0.386,0.636,0.566,0.571,0.263,0.227,west-northwest,14.2,No
2014/12/02,00:40,0.593,0.388,0.636,0.564,0.570,0.263,0.227,west,11.7,No
2014/12/02,00:50,0.594,0.387,0.637,0.566,0.572,0.264,0.227,west,11.5,No
2014/12/02,01:00,0.591,0.388,0.637,0.563,0.571,0.264,0.227,west,12.6,No
2014/12/02,01:10,0.593,0.386,0.636,0.566,0.572,0.264,0.228,west,7.8,No
2014/12/02,01:20,0.594,0.386,0.637,0.567,0.571,0.264,0.228,west,11.0,No
2014/12/02,01:30,0.595,0.387,0.636,0.564,0.572,0.265,0.228,west,13.2,No
2014/12/02,01:40,0.593,0.387,0.637,0.567,0.571,0.264,0.228,west,12.1,No
2014/12/02,01:50,0.592,0.387,0.636,0.567,0.570,0.264,0.229,west,11.9,No
2014/12/02,02:00,0.592,0.386,0.639,0.567,0.571,0.266,0.228,west-northwest,12.3,No
2014/12/02,02:10,0.594,0.387,0.637,0.566,0.571,0.264,0.230,west-northwest,7.7,No
2014/12/02,02:20,0.595,0.388,0.637,0.568,0.572,0.265,0.229,west-northwest,8.0,No
2014/12/02,02:30,0.593,0.387,0.638,0.567,0.572,0.263,0.228,west,10.6,No
2014/12/02,02:40,0.593,0.387,0.640,0.566,0.571,0.265,0.231,west,15.3,No
2014/12/02,02:50,0.595,0.388,0.640,0.566,0.571,0.266,0.229,west-northwest,11.2,No
2014/12/02,03:00,0.595,0.386,0.641,0.566,0.572,0.265,0.229,west,15.9,No
2014/12/02,03:10,0.595,0.389,0.638,0.567,0.573,0.266,0.229,west,14.9,No
2014/12/02,03:20,0.595,0.388,0.641,0.565,0.573,0.265,0.229,west-northwest,8.7,No
2014/12/02,03:30,0.594,0.389,0.641,0.568,0.572,0.265,0.230,west,7.9,No
2014/12/02,03:40,0.596,0.388,0.639,0.566,0.572,0.265,0.230,west-northwest,12.5,No
2014/12/02,03:50,0.596,0.389,0.640,0.568,0.573,0.267,0.229,west-northwest,9.7,No
2014/12/02,04:00,0.597,0.389,0.641,0.567,0.571,0.265,0.229,west,9.7,No
2014/12/02,04:10,0.596,0.388,0.642,0.566,0.573,0.265,0.230,west-northwest,8.6,No
2014/12/02,04:20,0.596,0.389,0.642,0.567,0.573,0.266,0.231,west,7.1,No
2014/12/02,04:30,0.596,0.388,0.642,0.568,0.573,0.267,0.230,west-northwest,8.1,No
2014/12/02,04:40,0.599,0.389,0.640,0.571,0.575,0.266,0.230,west-northwest,6.5,No
2014/12/02,04:50,0.596,0.387,0.642,0.570,0.572,0.267,0.229,west-northwest,8.1,No
2014/12/02,05:00,0.596,0.388,0.641,0.568,0.575,0.265,0.231,west-northwest,6.4,No
2014/12/02,05:10,0.598,0.389,0.641,0.566,0.573,0.266,0.230,west-northwest,9.5,No
2014/12/02,05:20,0.597,0.390,0.642,0.567,0.572,0.266,0.231,west-northwest,10.7,No
2014/12/02,05:30,0.597,0.389,0.643,0.570,0.574,0.267,0.232,north-northwest,6.4,No
2014/12/02,05:40,0.597,0.389,0.643,0.568,0.574,0.265,0.229,northwest,6.1,No
2014/12/02,05:50,0.598,0.388,0.642,0.568,0.573,0.266,0.230,west-northwest,4.5,No
2014/12/02,06:00,0.599,0.389,0.643,0.570,0.573,0.267,0.230,west-northwest,6.9,No
2014/12/02,06:10,0.598,0.389,0.643,0.568,0.574,0.266,0.231,west-northwest,6.1,No
2014/12/02,06:20,0.597,0.388,0.642,0.569,0.573,0.266,0.230,west-northwest,5.6,No
2014/12/02,06:30,0.598,0.389,0.643,0.569,0.573,0.267,0.230,west-northwest,4.1,No
2014/12/02,06:40,0.596,0.388,0.644,0.569,0.574,0.267,0.232,west,4.8,No
2014/12/02,06:50,0.597,0.388,0.641,0.569,0.573,0.267,0.230,north-northwest,2.8,No
2014/12/02,07:00,0.598,0.389,0.642,0.569,0.573,0.266,0.231,west,2.2,No
2014/12/02,07:10,0.596,0.389,0.642,0.570,0.573,0.266,0.232,northwest,5.3,No
2014/12/02,07:20,0.598,0.387,0.643,0.568,0.573,0.266,0.230,west-northwest,5.9,No
2014/12/02,07:30,0.595,0.388,0.642,0.570,0.574,0.266,0.230,west,6.1,No
2014/12/02,07:40,0.600,0.390,0.644,0.570,0.574,0.266,0.230,west,6.1,No
2014/12/02,07:50,0.597,0.390,0.643,0.567,0.574,0.266,0.229,northwest,2.2,No
2014/12/02,08:00,0.598,0.389,0.640,0.568,0.571,0.266,0.231,west-northwest,1.9,No
2014/12/02,08:10,0.598,0.388,0.643,0.569,0.573,0.267,0.231,northwest,0.8,No
2014/12/02,08:20,0.597,0.389,0.642,0.569,0.572,0.265,0.229,northwest,1.2,No
2014/12/02,08:30,0.598,0.388,0.641,0.570,0.573,0.266,0.230,southwest,0.8,No
2014/12/02,08:40,0.600,0.387,0.642,0.567,0.572,0.265,0.229,-,CALM,No
2014/12/02,08:50,0.598,0.389,0.644,0.563,0.574,0.267,0.230,west-southwest,1.1,No
2014/12/02,09:00,0.597,0.389,0.640,0.565,0.573,0.265,0.230,west-northwest,1.1,No
2014/12/02,09:10,0.598,0.388,0.643,0.560,0.573,0.266,0.230,southwest,1.1,No
2014/12/02,09:20,0.597,0.390,0.643,0.560,0.574,0.266,0.229,west-southwest,2.3,No
2014/12/02,09:30,0.598,0.389,0.642,0.561,0.573,0.265,0.230,-,CALM,No
2014/12/02,09:40,0.598,0.389,0.645,0.561,0.574,0.267,0.229,southwest,2.3,No
2014/12/02,09:50,0.597,0.389,0.642,0.562,0.575,0.266,0.230,west,3.3,No
2014/12/02,10:00,0.599,0.388,0.642,0.561,0.573,0.267,0.230,west-northwest,3.7,No
2014/12/02,10:10,0.597,0.389,0.642,0.564,0.572,0.266,0.231,southwest,4.1,No
2014/12/02,10:20,0.599,0.388,0.643,-,0.573,0.266,0.230,west,4.9,No
2014/12/02,10:30,0.599,0.390,0.643,-,0.573,0.266,0.231,west,6.4,No
2014/12/02,10:40,0.598,0.389,0.644,-,0.574,0.266,0.230,west-southwest,4.4,No
2014/12/02,10:50,0.598,0.389,0.644,-,0.573,0.267,0.231,west-southwest,7.5,No
2014/12/02,11:00,0.597,0.389,0.641,-,0.574,0.266,0.230,west-southwest,5.0,No
2014/12/02,11:10,0.597,0.388,0.645,-,0.574,0.267,0.231,west,7.7,No
2014/12/02,11:20,0.598,0.389,0.642,-,0.574,0.266,0.231,west-southwest,4.5,No
2014/12/02,11:30,0.600,0.389,0.644,-,0.574,0.266,0.232,west,5.4,No
2014/12/02,11:40,0.599,0.389,0.646,-,0.574,0.269,0.231,west,8.9,No
2014/12/02,11:50,0.599,0.390,0.645,-,0.574,0.267,0.231,west-southwest,7.1,No
2014/12/02,12:00,0.601,0.389,0.644,-,0.574,0.269,0.231,west,8.9,No
2014/12/02,12:10,0.598,0.388,0.642,-,0.574,0.268,0.232,west,6.7,No
2014/12/02,12:20,0.601,0.389,0.646,-,0.573,0.267,0.229,west,8.1,No
2014/12/02,12:30,0.598,0.390,0.646,-,0.575,0.268,0.232,west-southwest,6.2,No
2014/12/02,12:40,0.598,0.390,0.645,-,0.574,0.268,0.230,west-southwest,6.9,No
2014/12/02,12:50,0.598,0.390,0.646,-,0.572,0.269,0.233,west-northwest,5.1,No
2014/12/02,13:00,0.600,0.389,0.645,-,0.573,0.267,0.231,west,5.5,No
2014/12/02,13:10,0.599,0.389,0.644,-,0.572,0.268,0.233,west,7.4,No
2014/12/02,13:20,0.600,0.388,0.646,-,0.573,0.267,0.231,west-southwest,8.6,No
2014/12/02,13:30,0.598,0.388,0.646,-,0.575,0.268,0.232,west,4.8,No
2014/12/02,13:40,0.601,0.390,0.643,-,0.571,0.269,0.230,west-southwest,2.2,No
2014/12/02,13:50,0.599,0.389,0.646,-,0.572,0.268,0.233,west,2.6,No
2014/12/02,14:00,0.599,0.390,0.648,-,0.575,0.266,0.232,west-northwest,0.8,No
2014/12/02,14:10,0.599,0.391,0.646,-,0.573,0.265,0.234,west,2.4,No
2014/12/02,14:20,0.598,0.391,0.645,-,0.574,0.266,0.232,west,3.4,No
2014/12/02,14:30,0.601,0.390,0.645,-,0.572,0.268,0.233,north,1.2,No
2014/12/02,14:40,0.600,0.390,0.645,-,0.572,0.266,0.233,north-northwest,1.3,No
2014/12/02,14:50,0.599,0.390,0.645,-,0.573,0.267,0.232,south-southwest,1.9,No
2014/12/02,15:00,0.600,0.390,0.646,-,0.575,0.267,0.232,west-southwest,1.4,No
2014/12/02,15:10,0.600,0.388,0.644,-,0.572,0.268,0.232,west,0.8,No
2014/12/02,15:20,0.599,0.389,0.643,-,0.574,0.267,0.233,west-southwest,4.2,No
2014/12/02,15:30,0.601,0.389,0.643,-,0.575,0.270,0.232,west,2.4,No
2014/12/02,15:40,0.600,0.389,0.645,-,0.573,0.267,0.233,west-southwest,1.9,No
2014/12/02,15:50,0.600,0.388,0.643,-,0.575,0.269,0.232,west-southwest,1.9,No
2014/12/02,16:00,0.599,0.388,0.646,-,0.574,0.268,0.233,west,0.9,No
2014/12/02,16:10,0.600,0.388,0.644,-,0.572,0.268,0.234,west,1.4,No
2014/12/02,16:20,0.599,0.390,0.645,0.568,0.573,0.268,0.234,west-northwest,1.1,No
2014/12/02,16:30,0.598,0.388,0.645,0.580,0.573,0.267,0.234,northwest,2.2,No
2014/12/02,16:40,0.601,0.389,0.648,0.580,0.572,0.268,0.233,west-northwest,1.4,No
2014/12/02,16:50,0.600,0.389,0.645,0.579,0.572,0.267,0.233,west,0.8,No
2014/12/02,17:00,0.599,0.389,0.643,0.580,0.572,0.268,0.232,west,2.6,No
2014/12/02,17:10,0.598,0.388,0.643,0.580,0.573,0.268,0.233,west,1.7,No
2014/12/02,17:20,0.601,0.388,0.643,0.579,0.573,0.268,0.233,west,2.6,No
2014/12/02,17:30,0.600,0.389,0.645,0.579,0.573,0.268,0.233,west,1.6,No
2014/12/02,17:40,0.601,0.389,0.641,0.582,0.572,0.268,0.233,west,1.4,No
2014/12/02,17:50,0.598,0.387,0.644,0.579,0.574,0.268,0.232,west-southwest,2.9,No
2014/12/02,18:00,0.598,0.388,0.643,0.579,0.572,0.268,0.234,west-southwest,5.8,No
2014/12/02,18:10,0.599,0.388,0.643,0.580,0.574,0.267,0.232,west-southwest,5.3,No
2014/12/02,18:20,0.599,0.388,0.644,0.580,0.573,0.267,0.232,west-southwest,5.2,No
2014/12/02,18:30,0.600,0.388,0.643,0.579,0.573,0.268,0.233,west-southwest,5.8,No
2014/12/02,18:40,0.598,0.389,0.643,0.580,0.573,0.268,0.232,west-southwest,4.8,No
2014/12/02,18:50,0.600,0.387,0.643,0.579,0.573,0.268,0.233,west-southwest,5.8,No
2014/12/02,19:00,0.598,0.389,0.643,0.579,0.573,0.267,0.233,west-southwest,5.7,No
2014/12/02,19:10,0.597,0.389,0.645,0.579,0.573,0.267,0.233,west-southwest,6.6,No
2014/12/02,19:20,0.598,0.389,0.645,0.581,0.573,0.268,0.234,west-southwest,6.7,No
2014/12/02,19:30,0.599,0.389,0.645,0.580,0.574,0.268,0.234,west-southwest,6.9,No
2014/12/02,19:40,0.598,0.389,0.645,0.580,0.575,0.268,0.232,west-southwest,6.0,No
2014/12/02,19:50,0.597,0.388,0.645,0.580,0.574,0.268,0.233,west-southwest,7.9,No
2014/12/02,20:00,0.598,0.389,0.645,0.579,0.574,0.268,0.231,west-southwest,6.7,No
2014/12/02,20:10,0.599,0.389,0.644,0.579,0.574,0.268,0.233,west-southwest,8.5,No
2014/12/02,20:20,0.597,0.388,0.644,0.579,0.573,0.268,0.233,west-southwest,8.1,No
2014/12/02,20:30,0.599,0.387,0.645,0.580,0.573,0.267,0.233,west-southwest,6.4,No
2014/12/02,20:40,0.598,0.390,0.646,0.577,0.572,0.267,0.232,west-southwest,4.9,No
2014/12/02,20:50,0.600,0.388,0.644,0.578,0.574,0.268,0.233,west-southwest,6.3,No
2014/12/02,21:00,0.598,0.388,0.646,0.580,0.574,0.268,0.233,west-southwest,6.2,No
2014/12/02,21:10,0.600,0.388,0.646,0.579,0.572,0.268,0.232,west-southwest,5.9,No
2014/12/02,21:20,0.599,0.389,0.645,0.578,0.574,0.268,0.234,west-southwest,5.4,No
2014/12/02,21:30,0.598,0.388,0.646,0.580,0.574,0.269,0.235,southwest,5.6,No
2014/12/02,21:40,0.597,0.388,0.645,0.579,0.574,0.267,0.234,southwest,5.7,No
2014/12/02,21:50,0.599,0.389,0.645,0.580,0.574,0.267,0.232,south-southwest,5.0,No
2014/12/02,22:00,0.597,0.389,0.645,0.580,0.574,0.269,0.233,south-southwest,4.8,No
2014/12/02,22:10,0.599,0.388,0.644,0.579,0.573,0.269,0.233,southwest,5.3,No
2014/12/02,22:20,0.597,0.389,0.645,0.579,0.575,0.268,0.233,west-southwest,5.5,No
2014/12/02,22:30,0.598,0.389,0.646,0.580,0.574,0.268,0.233,southwest,6.4,No
2014/12/02,22:40,0.599,0.388,0.645,0.579,0.573,0.268,0.233,south-southwest,4.6,No
2014/12/02,22:50,0.599,0.388,0.644,0.580,0.573,0.268,0.234,south,4.2,No
2014/12/02,23:00,0.599,0.390,0.645,0.579,0.572,0.269,0.234,south-southwest,3.9,No
2014/12/02,23:10,0.599,0.389,0.645,0.579,0.573,0.268,0.232,southwest,4.6,No
2014/12/02,23:20,0.600,0.389,0.645,0.581,0.575,0.268,0.232,southwest,5.3,No
2014/12/02,23:30,0.600,0.388,0.646,0.579,0.574,0.269,0.233,south-southwest,3.9,No
2014/12/02,23:40,0.599,0.389,0.645,0.579,0.574,0.266,0.233,south-southwest,4.5,No
2014/12/02,23:50,0.598,0.388,0.646,0.580,0.573,0.268,0.232,south-southwest,4.5,No
